Shungnak AP, Shungnak, AK, AK

10:08 AM AKST on November 20, 2019 (GMT -0900)
Shungnak AP, Shungnak, AK

Weather History for PAGH - September, 2019

Change the Weather History Date:

Wednesday, September 4, 2019

  Actual Average (WUND) Record (WUND)
Temperature  
Mean Temperature 54 °F -  
Max Temperature 60 °F - - (-1)
Min Temperature 48 °F - - (-1)
Degree Days  
Heating Degree Days 11    
Growing Degree Days 4 (Base 50)    
Moisture  
Dew Point 47 °F    
Average Humidity 81    
Maximum Humidity 97    
Minimum Humidity 60    
Precipitation  
Precipitation 0.00 in - - ()
Sea Level Pressure  
Sea Level Pressure 29.96 in    
Wind  
Wind Speed 7 mph (SE)    
Max Wind Speed 13 mph    
Max Gust Speed 17 mph    
Visibility 10 miles    
Events Rain    
Averages and records for this station are not official NWS values.
T = Trace of Precipitation, MM = Missing Value Source: NWS Daily Summary

Daily Weather History Graph

Daily Weather History Graph

Search for Another Location

Airport or City:

Astronomy

Sep. 04, 2019 Rise Set
Actual Time 7:10 AM AKDT 9:42 PM AKDT
Civil Twilight 6:10 AM AKDT 10:41 PM AKDT
Nautical Twilight 4:43 AM AKDT 12:06 AM AKDT
Astronomical Twilight 3:00 AM AKDT 1:55 AM AKDT
Moon 4:13 PM AKDT (9/4) 10:28 PM AKDT (9/4)
Length of Visible Light 16h 30m
Length of Day
14h 32m
Waxing Crescent, 36% of the Moon is Illuminated
Sep 4
Waxing Crescent
Sep 5
First Quarter
Sep 13
Full
Sep 21
Last Quarter
Sep 28
New

Hourly Weather History & Observations

Time (AKDT) Temp. Dew Point Humidity Pressure Visibility Wind Dir Wind Speed Gust Speed Precip Events Conditions
12:56 AM 51.1 °F 50.0 °F 96% 29.91 in 10.0 mi East 3.5 mph - N/A   Overcast
1:56 AM 50.0 °F 48.0 °F 93% 29.92 in 10.0 mi SE 3.5 mph - N/A   Overcast
2:56 AM 50.0 °F 46.9 °F 89% 29.93 in 10.0 mi East 4.6 mph - N/A   Overcast
3:56 AM 48.9 °F 46.9 °F 93% 29.93 in 10.0 mi East 4.6 mph - N/A   Overcast
4:56 AM 48.9 °F 46.9 °F 93% 29.93 in 10.0 mi ESE 6.9 mph - N/A   Overcast
5:56 AM 48.9 °F 46.9 °F 93% 29.93 in 10.0 mi East 8.1 mph - N/A   Overcast
6:56 AM 48.9 °F 48.0 °F 97% 29.94 in 10.0 mi East 9.2 mph - N/A   Overcast
7:56 AM 48.9 °F 46.9 °F 93% 29.94 in 10.0 mi East 8.1 mph - N/A   Overcast
9:56 AM 50.0 °F 48.0 °F 93% 29.95 in 10.0 mi ESE 9.2 mph - N/A   Overcast
10:56 AM 52.0 °F 48.9 °F 89% 29.96 in 10.0 mi SE 6.9 mph - N/A   Overcast
12:56 PM 53.1 °F 51.1 °F 93% 29.98 in 10.0 mi East 8.1 mph - N/A Rain Light Rain
2:56 PM 55.9 °F 48.0 °F 75% 29.97 in 10.0 mi ESE 10.4 mph - N/A   Mostly Cloudy
3:56 PM 59.0 °F 46.9 °F 64% 29.97 in 10.0 mi SE 8.1 mph - N/A   Mostly Cloudy
4:56 PM 59.0 °F 45.0 °F 60% 29.96 in 10.0 mi South 9.2 mph - N/A   Mostly Cloudy
5:56 PM 60.1 °F 46.0 °F 60% 29.96 in 10.0 mi SSE 12.7 mph 17.3 mph N/A   Overcast
6:56 PM 57.9 °F 45.0 °F 62% 29.97 in 10.0 mi South 9.2 mph - N/A   Overcast
7:56 PM 55.9 °F 46.9 °F 72% 29.98 in 10.0 mi SSE 6.9 mph - N/A   Mostly Cloudy
8:56 PM 55.0 °F 46.0 °F 72% 29.99 in 10.0 mi SE 11.5 mph - N/A   Mostly Cloudy
9:56 PM 55.0 °F 46.0 °F 72% 30.01 in 10.0 mi SE 10.4 mph - N/A   Overcast
10:56 PM 54.0 °F 45.0 °F 72% 30.02 in 10.0 mi SE 6.9 mph - N/A   Overcast
11:56 PM 53.1 °F 45.0 °F 74% 30.02 in 10.0 mi SE 10.4 mph - N/A   Overcast